owner,sensor,date,latitude,longitude,air_pressure(mBar),qcFlag 
COMPS,ioos:station:USF.COMPS:ANC:1,2009-05-01T00:00:00Z,28.1930,-82.7890,1021.26,1111122 
COMPS,ioos:station:USF.COMPS:ANC:1,2009-05-01T00:06:00Z,28.1930,-82.7890,1021.29,1111122 
COMPS,ioos:station:USF.COMPS:ANC:1,2009-05-01T00:12:00Z,28.1930,-82.7890,1021.28,1111122 
COMPS,ioos:station:USF.COMPS:ANC:1,2009-05-01T00:18:00Z,28.1930,-82.7890,1021.29,1111122 
COMPS,ioos:station:USF.COMPS:ANC:1,2009-05-01T00:24:00Z,28.1930,-82.7890,1021.29,1111122 
COMPS,ioos:station:USF.COMPS:ANC:1,2009-05-01T00:30:00Z,28.1930,-82.7890,1021.37,1111122 
COMPS,ioos:station:USF.COMPS:ANC:1,2009-05-01T00:36:00Z,28.1930,-82.7890,1021.49,1111122 
COMPS,ioos:station:USF.COMPS:ANC:1,2009-05-01T00:42:00Z,28.1930,-82.7890,1021.54,1111122 
COMPS,ioos:station:USF.COMPS:ANC:1,2009-05-01T00:48:00Z,28.1930,-82.7890,1021.64,1111122 
COMPS,ioos:station:USF.COMPS:ANC:1,2009-05-01T00:54:00Z,28.1930,-82.7890,1021.64,1111122 
COMPS,ioos:station:USF.COMPS:ANC:1,2009-05-01T01:00:00Z,28.1930,-82.7890,1021.64,1111122 
COMPS,ioos:station:USF.COMPS:ANC:1,2009-05-01T01:06:00Z,28.1930,-82.7890,1021.69,1111122 
COMPS,ioos:station:USF.COMPS:ANC:1,2009-05-01T01:12:00Z,28.1930,-82.7890,1021.8,1111122 
COMPS,ioos:station:USF.COMPS:ANC:1,2009-05-01T01:18:00Z,28.1930,-82.7890,1021.89,1111122 
COMPS,ioos:station:USF.COMPS:ANC:1,2009-05-01T01:24:00Z,28.1930,-82.7890,1021.89,1111122 
COMPS,ioos:station:USF.COMPS:ANC:1,2009-05-01T01:30:00Z,28.1930,-82.7890,1021.9,1111122 
COMPS,ioos:station:USF.COMPS:ANC:1,2009-05-01T01:36:00Z,28.1930,-82.7890,1021.88,1111122 
COMPS,ioos:station:USF.COMPS:ANC:1,2009-05-01T01:42:00Z,28.1930,-82.7890,1021.89,1111122 
COMPS,ioos:station:USF.COMPS:ANC:1,2009-05-01T01:48:00Z,28.1930,-82.7890,1021.92,1111122 
COMPS,ioos:station:USF.COMPS:ANC:1,2009-05-01T01:54:00Z,28.1930,-82.7890,1021.94,1111122 
COMPS,ioos:station:USF.COMPS:ANC:1,2009-05-01T02:00:00Z,28.1930,-82.7890,1022.01,1111122 
COMPS,ioos:station:USF.COMPS:ANC:1,2009-05-01T02:06:00Z,28.1930,-82.7890,1022.24,1111122 
COMPS,ioos:station:USF.COMPS:ANC:1,2009-05-01T02:12:00Z,28.1930,-82.7890,1022.33,1111122 
COMPS,ioos:station:USF.COMPS:ANC:1,2009-05-01T02:18:00Z,28.1930,-82.7890,1022.3,1111122 
COMPS,ioos:station:USF.COMPS:ANC:1,2009-05-01T02:24:00Z,28.1930,-82.7890,1022.6,1111122 
COMPS,ioos:station:USF.COMPS:ANC:1,2009-05-01T02:30:00Z,28.1930,-82.7890,1022.69,1111122 
COMPS,ioos:station:USF.COMPS:ANC:1,2009-05-01T02:36:00Z,28.1930,-82.7890,1022.58,1111122 
COMPS,ioos:station:USF.COMPS:ANC:1,2009-05-01T02:42:00Z,28.1930,-82.7890,1022.58,1111122 
COMPS,ioos:station:USF.COMPS:ANC:1,2009-05-01T02:48:00Z,28.1930,-82.7890,1022.54,1111122 
COMPS,ioos:station:USF.COMPS:ANC:1,2009-05-01T02:54:00Z,28.1930,-82.7890,1022.89,1111122 
COMPS,ioos:station:USF.COMPS:ANC:1,2009-05-01T03:00:00Z,28.1930,-82.7890,1022.56,1111122 
COMPS,ioos:station:USF.COMPS:ANC:1,2009-05-01T03:06:00Z,28.1930,-82.7890,1023.94,1111122 
COMPS,ioos:station:USF.COMPS:ANC:1,2009-05-01T03:12:00Z,28.1930,-82.7890,1022.86,1111122 
COMPS,ioos:station:USF.COMPS:ANC:1,2009-05-01T03:18:00Z,28.1930,-82.7890,1022.41,1111122 
COMPS,ioos:station:USF.COMPS:ANC:1,2009-05-01T03:24:00Z,28.1930,-82.7890,1023.45,1111122 
COMPS,ioos:station:USF.COMPS:ANC:1,2009-05-01T03:30:00Z,28.1930,-82.7890,1023.04,1111122 
COMPS,ioos:station:USF.COMPS:ANC:1,2009-05-01T03:36:00Z,28.1930,-82.7890,1023.81,1111122 
COMPS,ioos:station:USF.COMPS:ANC:1,2009-05-01T03:42:00Z,28.1930,-82.7890,1022.89,1111122 
COMPS,ioos:station:USF.COMPS:ANC:1,2009-05-01T03:48:00Z,28.1930,-82.7890,1022.42,1111122 
COMPS,ioos:station:USF.COMPS:ANC:1,2009-05-01T03:54:00Z,28.1930,-82.7890,1022.48,1111122 
COMPS,ioos:station:USF.COMPS:ANC:1,2009-05-01T04:00:00Z,28.1930,-82.7890,1022.4,1111122 
COMPS,ioos:station:USF.COMPS:ANC:1,2009-05-01T04:06:00Z,28.1930,-82.7890,1022.4,1111122 
COMPS,ioos:station:USF.COMPS:ANC:1,2009-05-01T04:12:00Z,28.1930,-82.7890,1022.34,1111122 
COMPS,ioos:station:USF.COMPS:ANC:1,2009-05-01T04:18:00Z,28.1930,-82.7890,1022.28,1111122 
COMPS,ioos:station:USF.COMPS:ANC:1,2009-05-01T04:24:00Z,28.1930,-82.7890,1022.28,1111122 
COMPS,ioos:station:USF.COMPS:ANC:1,2009-05-01T04:30:00Z,28.1930,-82.7890,1022.2,1111122 
COMPS,ioos:station:USF.COMPS:ANC:1,2009-05-01T04:36:00Z,28.1930,-82.7890,1022.22,1111122 
COMPS,ioos:station:USF.COMPS:ANC:1,2009-05-01T04:42:00Z,28.1930,-82.7890,1022.56,1111122 
COMPS,ioos:station:USF.COMPS:ANC:1,2009-05-01T04:48:00Z,28.1930,-82.7890,1022.29,1111122 
COMPS,ioos:station:USF.COMPS:ANC:1,2009-05-01T04:54:00Z,28.1930,-82.7890,1022.37,1111122 
COMPS,ioos:station:USF.COMPS:ANC:1,2009-05-01T05:00:00Z,28.1930,-82.7890,1022.77,1111122 
COMPS,ioos:station:USF.COMPS:ANC:1,2009-05-01T05:06:00Z,28.1930,-82.7890,1022.2,1111122 
COMPS,ioos:station:USF.COMPS:ANC:1,2009-05-01T05:12:00Z,28.1930,-82.7890,1022.2,1111122 
COMPS,ioos:station:USF.COMPS:ANC:1,2009-05-01T05:18:00Z,28.1930,-82.7890,1022.1,1111122 
COMPS,ioos:station:USF.COMPS:ANC:1,2009-05-01T05:24:00Z,28.1930,-82.7890,1022.14,1111122 
COMPS,ioos:station:USF.COMPS:ANC:1,2009-05-01T05:30:00Z,28.1930,-82.7890,1022.2,1111122 
COMPS,ioos:station:USF.COMPS:ANC:1,2009-05-01T05:36:00Z,28.1930,-82.7890,1022.26,1111122 
COMPS,ioos:station:USF.COMPS:ANC:1,2009-05-01T05:42:00Z,28.1930,-82.7890,1022.24,1111122 
COMPS,ioos:station:USF.COMPS:ANC:1,2009-05-01T05:48:00Z,28.1930,-82.7890,1022.12,1111122 
COMPS,ioos:station:USF.COMPS:ANC:1,2009-05-01T05:54:00Z,28.1930,-82.7890,1022.05,1111122 
COMPS,ioos:station:USF.COMPS:ANC:1,2009-05-01T06:00:00Z,28.1930,-82.7890,1021.96,1111122 
COMPS,ioos:station:USF.COMPS:ANC:1,2009-05-01T06:06:00Z,28.1930,-82.7890,1022.01,1111122 
COMPS,ioos:station:USF.COMPS:ANC:1,2009-05-01T06:12:00Z,28.1930,-82.7890,1021.92,1111122 
COMPS,ioos:station:USF.COMPS:ANC:1,2009-05-01T06:18:00Z,28.1930,-82.7890,1021.86,1111122 
COMPS,ioos:station:USF.COMPS:ANC:1,2009-05-01T06:24:00Z,28.1930,-82.7890,1021.76,1111122 
COMPS,ioos:station:USF.COMPS:ANC:1,2009-05-01T06:30:00Z,28.1930,-82.7890,1021.66,1111122 
COMPS,ioos:station:USF.COMPS:ANC:1,2009-05-01T06:36:00Z,28.1930,-82.7890,1021.64,1111122 
COMPS,ioos:station:USF.COMPS:ANC:1,2009-05-01T06:42:00Z,28.1930,-82.7890,1021.65,1111122 
COMPS,ioos:station:USF.COMPS:ANC:1,2009-05-01T06:48:00Z,28.1930,-82.7890,1021.62,1111122 
COMPS,ioos:station:USF.COMPS:ANC:1,2009-05-01T06:54:00Z,28.1930,-82.7890,1021.58,1111122 
COMPS,ioos:station:USF.COMPS:ANC:1,2009-05-01T07:00:00Z,28.1930,-82.7890,1021.61,1111122 
COMPS,ioos:station:USF.COMPS:ANC:1,2009-05-01T07:06:00Z,28.1930,-82.7890,1021.61,1111122 
COMPS,ioos:station:USF.COMPS:ANC:1,2009-05-01T07:12:00Z,28.1930,-82.7890,1021.72,1111122 
COMPS,ioos:station:USF.COMPS:ANC:1,2009-05-01T07:18:00Z,28.1930,-82.7890,1021.68,1111122 
COMPS,ioos:station:USF.COMPS:ANC:1,2009-05-01T07:24:00Z,28.1930,-82.7890,1021.62,1111122 
COMPS,ioos:station:USF.COMPS:ANC:1,2009-05-01T07:30:00Z,28.1930,-82.7890,1021.53,1111122 
COMPS,ioos:station:USF.COMPS:ANC:1,2009-05-01T07:36:00Z,28.1930,-82.7890,1021.46,1111122 
COMPS,ioos:station:USF.COMPS:ANC:1,2009-05-01T07:42:00Z,28.1930,-82.7890,1021.37,1111122 
COMPS,ioos:station:USF.COMPS:ANC:1,2009-05-01T07:48:00Z,28.1930,-82.7890,1021.38,1111122 
COMPS,ioos:station:USF.COMPS:ANC:1,2009-05-01T07:54:00Z,28.1930,-82.7890,1021.46,1111122 
COMPS,ioos:station:USF.COMPS:ANC:1,2009-05-01T08:00:00Z,28.1930,-82.7890,1021.48,1111122 
COMPS,ioos:station:USF.COMPS:ANC:1,2009-05-01T08:06:00Z,28.1930,-82.7890,1021.48,1111122 
COMPS,ioos:station:USF.COMPS:ANC:1,2009-05-01T08:12:00Z,28.1930,-82.7890,1021.52,1111122 
COMPS,ioos:station:USF.COMPS:ANC:1,2009-05-01T08:18:00Z,28.1930,-82.7890,1021.58,1111122 
COMPS,ioos:station:USF.COMPS:ANC:1,2009-05-01T08:24:00Z,28.1930,-82.7890,1021.57,1111122 
COMPS,ioos:station:USF.COMPS:ANC:1,2009-05-01T08:30:00Z,28.1930,-82.7890,1021.5,1111122 
COMPS,ioos:station:USF.COMPS:ANC:1,2009-05-01T08:36:00Z,28.1930,-82.7890,1021.48,1111122 
COMPS,ioos:station:USF.COMPS:ANC:1,2009-05-01T08:42:00Z,28.1930,-82.7890,1021.5,1111122 
COMPS,ioos:station:USF.COMPS:ANC:1,2009-05-01T08:48:00Z,28.1930,-82.7890,1021.49,1111122 
COMPS,ioos:station:USF.COMPS:ANC:1,2009-05-01T08:54:00Z,28.1930,-82.7890,1021.52,1111122 
COMPS,ioos:station:USF.COMPS:ANC:1,2009-05-01T09:00:00Z,28.1930,-82.7890,1021.58,1111122 
COMPS,ioos:station:USF.COMPS:ANC:1,2009-05-01T09:06:00Z,28.1930,-82.7890,1021.57,1111122 
COMPS,ioos:station:USF.COMPS:ANC:1,2009-05-01T09:12:00Z,28.1930,-82.7890,1021.61,1111122 
COMPS,ioos:station:USF.COMPS:ANC:1,2009-05-01T09:18:00Z,28.1930,-82.7890,1021.62,1111122 
COMPS,ioos:station:USF.COMPS:ANC:1,2009-05-01T09:24:00Z,28.1930,-82.7890,1021.61,1111122 
COMPS,ioos:station:USF.COMPS:ANC:1,2009-05-01T09:30:00Z,28.1930,-82.7890,1021.61,1111122 
COMPS,ioos:station:USF.COMPS:ANC:1,2009-05-01T09:36:00Z,28.1930,-82.7890,1021.72,1111122 
COMPS,ioos:station:USF.COMPS:ANC:1,2009-05-01T09:42:00Z,28.1930,-82.7890,1021.7,1111122 
COMPS,ioos:station:USF.COMPS:ANC:1,2009-05-01T09:48:00Z,28.1930,-82.7890,1021.72,1111122 
COMPS,ioos:station:USF.COMPS:ANC:1,2009-05-01T09:54:00Z,28.1930,-82.7890,1021.74,1111122 
COMPS,ioos:station:USF.COMPS:ANC:1,2009-05-01T10:00:00Z,28.1930,-82.7890,1021.74,1111122 
COMPS,ioos:station:USF.COMPS:ANC:1,2009-05-01T10:06:00Z,28.1930,-82.7890,1021.8,1111122 
COMPS,ioos:station:USF.COMPS:ANC:1,2009-05-01T10:12:00Z,28.1930,-82.7890,1021.85,1111122 
COMPS,ioos:station:USF.COMPS:ANC:1,2009-05-01T10:18:00Z,28.1930,-82.7890,1021.85,1111122 
COMPS,ioos:station:USF.COMPS:ANC:1,2009-05-01T10:24:00Z,28.1930,-82.7890,1021.93,1111122 
COMPS,ioos:station:USF.COMPS:ANC:1,2009-05-01T10:30:00Z,28.1930,-82.7890,1022.0,1111122 
COMPS,ioos:station:USF.COMPS:ANC:1,2009-05-01T10:36:00Z,28.1930,-82.7890,1022.02,1111122 
COMPS,ioos:station:USF.COMPS:ANC:1,2009-05-01T10:42:00Z,28.1930,-82.7890,1022.13,1111122 
COMPS,ioos:station:USF.COMPS:ANC:1,2009-05-01T10:48:00Z,28.1930,-82.7890,1022.22,1111122 
COMPS,ioos:station:USF.COMPS:ANC:1,2009-05-01T10:54:00Z,28.1930,-82.7890,1022.3,1111122 
COMPS,ioos:station:USF.COMPS:ANC:1,2009-05-01T11:00:00Z,28.1930,-82.7890,1022.36,1111122 
COMPS,ioos:station:USF.COMPS:ANC:1,2009-05-01T11:06:00Z,28.1930,-82.7890,1022.37,1111122 
COMPS,ioos:station:USF.COMPS:ANC:1,2009-05-01T11:12:00Z,28.1930,-82.7890,1022.38,1111122 
COMPS,ioos:station:USF.COMPS:ANC:1,2009-05-01T11:18:00Z,28.1930,-82.7890,1022.46,1111122 
COMPS,ioos:station:USF.COMPS:ANC:1,2009-05-01T11:24:00Z,28.1930,-82.7890,1022.48,1111122 
COMPS,ioos:station:USF.COMPS:ANC:1,2009-05-01T11:30:00Z,28.1930,-82.7890,1022.53,1111122 
COMPS,ioos:station:USF.COMPS:ANC:1,2009-05-01T11:36:00Z,28.1930,-82.7890,1022.6,1111122 
COMPS,ioos:station:USF.COMPS:ANC:1,2009-05-01T11:42:00Z,28.1930,-82.7890,1022.69,1111122 
COMPS,ioos:station:USF.COMPS:ANC:1,2009-05-01T11:48:00Z,28.1930,-82.7890,1022.8,1111122 
COMPS,ioos:station:USF.COMPS:ANC:1,2009-05-01T11:54:00Z,28.1930,-82.7890,1022.92,1111122 
COMPS,ioos:station:USF.COMPS:ANC:1,2009-05-01T12:00:00Z,28.1930,-82.7890,1023.0,1111122 
COMPS,ioos:station:USF.COMPS:ANC:1,2009-05-01T12:06:00Z,28.1930,-82.7890,1023.0,1111122 
COMPS,ioos:station:USF.COMPS:ANC:1,2009-05-01T12:12:00Z,28.1930,-82.7890,1023.0,1111122 
COMPS,ioos:station:USF.COMPS:ANC:1,2009-05-01T12:18:00Z,28.1930,-82.7890,1023.01,1111122 
COMPS,ioos:station:USF.COMPS:ANC:1,2009-05-01T12:24:00Z,28.1930,-82.7890,1022.97,1111122 
COMPS,ioos:station:USF.COMPS:ANC:1,2009-05-01T12:30:00Z,28.1930,-82.7890,1022.89,1111122 
COMPS,ioos:station:USF.COMPS:ANC:1,2009-05-01T12:36:00Z,28.1930,-82.7890,1022.93,1111122 
COMPS,ioos:station:USF.COMPS:ANC:1,2009-05-01T12:42:00Z,28.1930,-82.7890,1022.9,1111122 
COMPS,ioos:station:USF.COMPS:ANC:1,2009-05-01T12:48:00Z,28.1930,-82.7890,1022.88,1111122 
COMPS,ioos:station:USF.COMPS:ANC:1,2009-05-01T12:54:00Z,28.1930,-82.7890,1022.89,1111122 
COMPS,ioos:station:USF.COMPS:ANC:1,2009-05-01T13:00:00Z,28.1930,-82.7890,1022.89,1111122 
COMPS,ioos:station:USF.COMPS:ANC:1,2009-05-01T13:06:00Z,28.1930,-82.7890,1022.85,1111122 
COMPS,ioos:station:USF.COMPS:ANC:1,2009-05-01T13:12:00Z,28.1930,-82.7890,1022.88,1111122 
COMPS,ioos:station:USF.COMPS:ANC:1,2009-05-01T13:18:00Z,28.1930,-82.7890,1022.88,1111122 
COMPS,ioos:station:USF.COMPS:ANC:1,2009-05-01T13:24:00Z,28.1930,-82.7890,1023.0,1111122 
COMPS,ioos:station:USF.COMPS:ANC:1,2009-05-01T13:30:00Z,28.1930,-82.7890,1023.0,1111122 
COMPS,ioos:station:USF.COMPS:ANC:1,2009-05-01T13:36:00Z,28.1930,-82.7890,1022.86,1111122 
COMPS,ioos:station:USF.COMPS:ANC:1,2009-05-01T13:42:00Z,28.1930,-82.7890,1022.81,1111122 
COMPS,ioos:station:USF.COMPS:ANC:1,2009-05-01T13:48:00Z,28.1930,-82.7890,1022.84,1111122 
COMPS,ioos:station:USF.COMPS:ANC:1,2009-05-01T13:54:00Z,28.1930,-82.7890,1022.92,1111122 
COMPS,ioos:station:USF.COMPS:ANC:1,2009-05-01T14:00:00Z,28.1930,-82.7890,1022.9,1111122 
COMPS,ioos:station:USF.COMPS:ANC:1,2009-05-01T14:06:00Z,28.1930,-82.7890,1022.93,1111122 
COMPS,ioos:station:USF.COMPS:ANC:1,2009-05-01T14:12:00Z,28.1930,-82.7890,1023.01,1111122 
COMPS,ioos:station:USF.COMPS:ANC:1,2009-05-01T14:18:00Z,28.1930,-82.7890,1023.01,1111122 
COMPS,ioos:station:USF.COMPS:ANC:1,2009-05-01T14:24:00Z,28.1930,-82.7890,1023.01,1111122 
COMPS,ioos:station:USF.COMPS:ANC:1,2009-05-01T14:30:00Z,28.1930,-82.7890,1023.02,1111122 
COMPS,ioos:station:USF.COMPS:ANC:1,2009-05-01T14:36:00Z,28.1930,-82.7890,1023.05,1111122 
COMPS,ioos:station:USF.COMPS:ANC:1,2009-05-01T14:42:00Z,28.1930,-82.7890,1023.1,1111122 
COMPS,ioos:station:USF.COMPS:ANC:1,2009-05-01T14:48:00Z,28.1930,-82.7890,1023.1,1111122 
COMPS,ioos:station:USF.COMPS:ANC:1,2009-05-01T14:54:00Z,28.1930,-82.7890,1023.02,1111122 
COMPS,ioos:station:USF.COMPS:ANC:1,2009-05-01T15:00:00Z,28.1930,-82.7890,1023.04,1111122 
COMPS,ioos:station:USF.COMPS:ANC:1,2009-05-01T15:06:00Z,28.1930,-82.7890,1023.04,1111122 
COMPS,ioos:station:USF.COMPS:ANC:1,2009-05-01T15:12:00Z,28.1930,-82.7890,1023.02,1111122 
COMPS,ioos:station:USF.COMPS:ANC:1,2009-05-01T15:18:00Z,28.1930,-82.7890,1023.02,1111122 
COMPS,ioos:station:USF.COMPS:ANC:1,2009-05-01T15:24:00Z,28.1930,-82.7890,1023.01,1111122 
COMPS,ioos:station:USF.COMPS:ANC:1,2009-05-01T15:30:00Z,28.1930,-82.7890,1022.94,1111122 
COMPS,ioos:station:USF.COMPS:ANC:1,2009-05-01T15:36:00Z,28.1930,-82.7890,1022.97,1111122 
COMPS,ioos:station:USF.COMPS:ANC:1,2009-05-01T15:42:00Z,28.1930,-82.7890,1022.89,1111122 
COMPS,ioos:station:USF.COMPS:ANC:1,2009-05-01T15:48:00Z,28.1930,-82.7890,1022.86,1111122 
COMPS,ioos:station:USF.COMPS:ANC:1,2009-05-01T15:54:00Z,28.1930,-82.7890,1022.84,1111122 
COMPS,ioos:station:USF.COMPS:ANC:1,2009-05-01T16:00:00Z,28.1930,-82.7890,1022.84,1111122 
COMPS,ioos:station:USF.COMPS:ANC:1,2009-05-01T16:06:00Z,28.1930,-82.7890,1022.77,1111122 
COMPS,ioos:station:USF.COMPS:ANC:1,2009-05-01T16:12:00Z,28.1930,-82.7890,1022.74,1111122 
COMPS,ioos:station:USF.COMPS:ANC:1,2009-05-01T16:18:00Z,28.1930,-82.7890,1022.7,1111122 
COMPS,ioos:station:USF.COMPS:ANC:1,2009-05-01T16:24:00Z,28.1930,-82.7890,1022.66,1111122 
COMPS,ioos:station:USF.COMPS:ANC:1,2009-05-01T16:30:00Z,28.1930,-82.7890,1022.61,1111122 
COMPS,ioos:station:USF.COMPS:ANC:1,2009-05-01T16:36:00Z,28.1930,-82.7890,1022.56,1111122 
COMPS,ioos:station:USF.COMPS:ANC:1,2009-05-01T16:42:00Z,28.1930,-82.7890,1022.49,1111122 
COMPS,ioos:station:USF.COMPS:ANC:1,2009-05-01T16:48:00Z,28.1930,-82.7890,1022.58,1111122 
COMPS,ioos:station:USF.COMPS:ANC:1,2009-05-01T16:54:00Z,28.1930,-82.7890,1022.45,1111122 
COMPS,ioos:station:USF.COMPS:ANC:1,2009-05-01T17:00:00Z,28.1930,-82.7890,1022.44,1111122 
COMPS,ioos:station:USF.COMPS:ANC:1,2009-05-01T17:06:00Z,28.1930,-82.7890,1022.44,1111122 
COMPS,ioos:station:USF.COMPS:ANC:1,2009-05-01T17:12:00Z,28.1930,-82.7890,1022.57,1111122 
COMPS,ioos:station:USF.COMPS:ANC:1,2009-05-01T17:18:00Z,28.1930,-82.7890,1022.9,1111122 
COMPS,ioos:station:USF.COMPS:ANC:1,2009-05-01T17:24:00Z,28.1930,-82.7890,1022.48,1111122 
COMPS,ioos:station:USF.COMPS:ANC:1,2009-05-01T17:30:00Z,28.1930,-82.7890,1022.48,1111122 
COMPS,ioos:station:USF.COMPS:ANC:1,2009-05-01T17:36:00Z,28.1930,-82.7890,1022.46,1111122 
COMPS,ioos:station:USF.COMPS:ANC:1,2009-05-01T17:42:00Z,28.1930,-82.7890,1022.46,1111122 
COMPS,ioos:station:USF.COMPS:ANC:1,2009-05-01T17:48:00Z,28.1930,-82.7890,1022.45,1111122 
COMPS,ioos:station:USF.COMPS:ANC:1,2009-05-01T17:54:00Z,28.1930,-82.7890,1022.42,1111122 
COMPS,ioos:station:USF.COMPS:ANC:1,2009-05-01T18:00:00Z,28.1930,-82.7890,1022.46,1111122 
COMPS,ioos:station:USF.COMPS:ANC:1,2009-05-01T18:06:00Z,28.1930,-82.7890,1024.74,1111122 
COMPS,ioos:station:USF.COMPS:ANC:1,2009-05-01T18:12:00Z,28.1930,-82.7890,1023.66,1111122 
COMPS,ioos:station:USF.COMPS:ANC:1,2009-05-01T18:18:00Z,28.1930,-82.7890,1024.04,1111122 
COMPS,ioos:station:USF.COMPS:ANC:1,2009-05-01T18:24:00Z,28.1930,-82.7890,1023.97,1111122 
COMPS,ioos:station:USF.COMPS:ANC:1,2009-05-01T18:30:00Z,28.1930,-82.7890,1024.16,1111122 
COMPS,ioos:station:USF.COMPS:ANC:1,2009-05-01T18:36:00Z,28.1930,-82.7890,1027.22,1111122 
COMPS,ioos:station:USF.COMPS:ANC:1,2009-05-01T18:42:00Z,28.1930,-82.7890,1025.66,1111122 
COMPS,ioos:station:USF.COMPS:ANC:1,2009-05-01T18:48:00Z,28.1930,-82.7890,1028.9,1111122 
COMPS,ioos:station:USF.COMPS:ANC:1,2009-05-01T18:54:00Z,28.1930,-82.7890,1032.66,1111122 
COMPS,ioos:station:USF.COMPS:ANC:1,2009-05-01T22:00:00Z,28.1930,-82.7890,1037.42,1111122 
COMPS,ioos:station:USF.COMPS:ANC:1,2009-05-01T22:06:00Z,28.1930,-82.7890,1037.73,1111122 
COMPS,ioos:station:USF.COMPS:ANC:1,2009-05-01T22:12:00Z,28.1930,-82.7890,1039.13,1111122 
COMPS,ioos:station:USF.COMPS:ANC:1,2009-05-01T22:18:00Z,28.1930,-82.7890,1037.57,1111122 
COMPS,ioos:station:USF.COMPS:ANC:1,2009-05-01T23:00:00Z,28.1930,-82.7890,1034.02,1111122 
COMPS,ioos:station:USF.COMPS:ANC:1,2009-05-01T23:06:00Z,28.1930,-82.7890,1037.3,1111122 
COMPS,ioos:station:USF.COMPS:ANC:1,2009-05-01T23:30:00Z,28.1930,-82.7890,1039.17,1111122 
COMPS,ioos:station:USF.COMPS:ANC:1,2009-05-01T23:36:00Z,28.1930,-82.7890,1037.22,1111122 
COMPS,ioos:station:USF.COMPS:ANC:1,2009-05-01T23:42:00Z,28.1930,-82.7890,1036.5,1111122 
COMPS,ioos:station:USF.COMPS:ANC:1,2009-05-01T23:48:00Z,28.1930,-82.7890,1036.01,1111122 
COMPS,ioos:station:USF.COMPS:ANC:1,2009-05-01T23:54:00Z,28.1930,-82.7890,1037.73,1111122 
COMPS,ioos:station:USF.COMPS:ANC:1,2009-05-02T00:06:00Z,28.1930,-82.7890,1029.18,1111122 
COMPS,ioos:station:USF.COMPS:ANC:1,2009-05-02T00:12:00Z,28.1930,-82.7890,1038.73,1111122 
COMPS,ioos:station:USF.COMPS:ANC:1,2009-05-02T00:18:00Z,28.1930,-82.7890,1036.75,1111122 
COMPS,ioos:station:USF.COMPS:ANC:1,2009-05-02T00:24:00Z,28.1930,-82.7890,1039.75,1111122 
COMPS,ioos:station:USF.COMPS:ANC:1,2009-05-02T00:30:00Z,28.1930,-82.7890,1035.62,1111122 
COMPS,ioos:station:USF.COMPS:ANC:1,2009-05-02T00:36:00Z,28.1930,-82.7890,1038.22,1111122 
COMPS,ioos:station:USF.COMPS:ANC:1,2009-05-02T00:48:00Z,28.1930,-82.7890,1039.05,1111122 
COMPS,ioos:station:USF.COMPS:ANC:1,2009-05-02T00:54:00Z,28.1930,-82.7890,1039.82,1111122 
COMPS,ioos:station:USF.COMPS:ANC:1,2009-05-02T01:00:00Z,28.1930,-82.7890,1036.26,1111122 
COMPS,ioos:station:USF.COMPS:ANC:1,2009-05-02T01:06:00Z,28.1930,-82.7890,1037.97,1111122 
COMPS,ioos:station:USF.COMPS:ANC:1,2009-05-02T01:12:00Z,28.1930,-82.7890,1038.19,1111122 
COMPS,ioos:station:USF.COMPS:ANC:1,2009-05-02T01:18:00Z,28.1930,-82.7890,1036.73,1111122 
COMPS,ioos:station:USF.COMPS:ANC:1,2009-05-02T01:24:00Z,28.1930,-82.7890,1034.26,1111122 
COMPS,ioos:station:USF.COMPS:ANC:1,2009-05-02T01:30:00Z,28.1930,-82.7890,1034.01,1111122 
COMPS,ioos:station:USF.COMPS:ANC:1,2009-05-02T01:36:00Z,28.1930,-82.7890,1032.88,1111122 
COMPS,ioos:station:USF.COMPS:ANC:1,2009-05-02T01:42:00Z,28.1930,-82.7890,1033.78,1111122 
COMPS,ioos:station:USF.COMPS:ANC:1,2009-05-02T01:48:00Z,28.1930,-82.7890,1035.22,1111122 
COMPS,ioos:station:USF.COMPS:ANC:1,2009-05-02T01:54:00Z,28.1930,-82.7890,1034.98,1111122 
COMPS,ioos:station:USF.COMPS:ANC:1,2009-05-02T02:00:00Z,28.1930,-82.7890,1034.44,1111122 
COMPS,ioos:station:USF.COMPS:ANC:1,2009-05-02T02:06:00Z,28.1930,-82.7890,1036.18,1111122 
COMPS,ioos:station:USF.COMPS:ANC:1,2009-05-02T02:12:00Z,28.1930,-82.7890,1035.66,1111122 
COMPS,ioos:station:USF.COMPS:ANC:1,2009-05-02T02:18:00Z,28.1930,-82.7890,1037.37,1111122 
COMPS,ioos:station:USF.COMPS:ANC:1,2009-05-02T02:24:00Z,28.1930,-82.7890,1034.58,1111122 
COMPS,ioos:station:USF.COMPS:ANC:1,2009-05-02T02:30:00Z,28.1930,-82.7890,1034.99,1111122 
COMPS,ioos:station:USF.COMPS:ANC:1,2009-05-02T02:36:00Z,28.1930,-82.7890,1035.49,1111122 
COMPS,ioos:station:USF.COMPS:ANC:1,2009-05-02T02:42:00Z,28.1930,-82.7890,1033.57,1111122 
COMPS,ioos:station:USF.COMPS:ANC:1,2009-05-02T02:48:00Z,28.1930,-82.7890,1036.23,1111122 
COMPS,ioos:station:USF.COMPS:ANC:1,2009-05-02T02:54:00Z,28.1930,-82.7890,1035.55,1111122 
COMPS,ioos:station:USF.COMPS:ANC:1,2009-05-02T03:00:00Z,28.1930,-82.7890,1034.2,1111122 
COMPS,ioos:station:USF.COMPS:ANC:1,2009-05-02T03:06:00Z,28.1930,-82.7890,1033.93,1111122 
COMPS,ioos:station:USF.COMPS:ANC:1,2009-05-02T03:12:00Z,28.1930,-82.7890,1033.18,1111122 
COMPS,ioos:station:USF.COMPS:ANC:1,2009-05-02T03:18:00Z,28.1930,-82.7890,1036.06,1111122 
COMPS,ioos:station:USF.COMPS:ANC:1,2009-05-02T03:24:00Z,28.1930,-82.7890,1034.04,1111122 
COMPS,ioos:station:USF.COMPS:ANC:1,2009-05-02T03:30:00Z,28.1930,-82.7890,1034.01,1111122 
COMPS,ioos:station:USF.COMPS:ANC:1,2009-05-02T03:36:00Z,28.1930,-82.7890,1033.48,1111122 
COMPS,ioos:station:USF.COMPS:ANC:1,2009-05-02T03:42:00Z,28.1930,-82.7890,1033.68,1111122 
COMPS,ioos:station:USF.COMPS:ANC:1,2009-05-02T03:48:00Z,28.1930,-82.7890,1034.3,1111122 
COMPS,ioos:station:USF.COMPS:ANC:1,2009-05-02T03:54:00Z,28.1930,-82.7890,1035.41,1111122 
COMPS,ioos:station:USF.COMPS:ANC:1,2009-05-02T04:00:00Z,28.1930,-82.7890,1035.06,1111122 
COMPS,ioos:station:USF.COMPS:ANC:1,2009-05-02T04:06:00Z,28.1930,-82.7890,1035.51,1111122 
COMPS,ioos:station:USF.COMPS:ANC:1,2009-05-02T04:12:00Z,28.1930,-82.7890,1033.29,1111122 
COMPS,ioos:station:USF.COMPS:ANC:1,2009-05-02T04:18:00Z,28.1930,-82.7890,1034.42,1111122 
COMPS,ioos:station:USF.COMPS:ANC:1,2009-05-02T04:24:00Z,28.1930,-82.7890,1033.49,1111122 
COMPS,ioos:station:USF.COMPS:ANC:1,2009-05-02T04:30:00Z,28.1930,-82.7890,1033.36,1111122 
COMPS,ioos:station:USF.COMPS:ANC:1,2009-05-02T04:36:00Z,28.1930,-82.7890,1033.29,1111122 
COMPS,ioos:station:USF.COMPS:ANC:1,2009-05-02T04:42:00Z,28.1930,-82.7890,1030.85,1111122 
COMPS,ioos:station:USF.COMPS:ANC:1,2009-05-02T04:48:00Z,28.1930,-82.7890,1031.94,1111122 
COMPS,ioos:station:USF.COMPS:ANC:1,2009-05-02T04:54:00Z,28.1930,-82.7890,1036.17,1111122 
COMPS,ioos:station:USF.COMPS:ANC:1,2009-05-02T05:00:00Z,28.1930,-82.7890,1033.62,1111122 
COMPS,ioos:station:USF.COMPS:ANC:1,2009-05-02T05:06:00Z,28.1930,-82.7890,1033.66,1111122 
COMPS,ioos:station:USF.COMPS:ANC:1,2009-05-02T05:12:00Z,28.1930,-82.7890,1033.16,1111122 
COMPS,ioos:station:USF.COMPS:ANC:1,2009-05-02T05:18:00Z,28.1930,-82.7890,1032.08,1111122 
COMPS,ioos:station:USF.COMPS:ANC:1,2009-05-02T05:24:00Z,28.1930,-82.7890,1032.98,1111122 
COMPS,ioos:station:USF.COMPS:ANC:1,2009-05-02T05:30:00Z,28.1930,-82.7890,1033.26,1111122 
COMPS,ioos:station:USF.COMPS:ANC:1,2009-05-02T05:36:00Z,28.1930,-82.7890,1036.1,1111122 
COMPS,ioos:station:USF.COMPS:ANC:1,2009-05-02T05:42:00Z,28.1930,-82.7890,1035.45,1111122 
COMPS,ioos:station:USF.COMPS:ANC:1,2009-05-02T05:48:00Z,28.1930,-82.7890,1034.78,1111122 
COMPS,ioos:station:USF.COMPS:ANC:1,2009-05-02T05:54:00Z,28.1930,-82.7890,1033.69,1111122 
COMPS,ioos:station:USF.COMPS:ANC:1,2009-05-02T06:00:00Z,28.1930,-82.7890,1034.33,1111122 
COMPS,ioos:station:USF.COMPS:ANC:1,2009-05-02T06:06:00Z,28.1930,-82.7890,1033.24,1111122 
COMPS,ioos:station:USF.COMPS:ANC:1,2009-05-02T06:12:00Z,28.1930,-82.7890,1033.54,1111122 
COMPS,ioos:station:USF.COMPS:ANC:1,2009-05-02T06:18:00Z,28.1930,-82.7890,1031.77,1111122 
COMPS,ioos:station:USF.COMPS:ANC:1,2009-05-02T06:24:00Z,28.1930,-82.7890,1035.53,1111122 
COMPS,ioos:station:USF.COMPS:ANC:1,2009-05-02T06:30:00Z,28.1930,-82.7890,1037.43,1111122 
COMPS,ioos:station:USF.COMPS:ANC:1,2009-05-02T06:36:00Z,28.1930,-82.7890,1036.94,1111122 